Stations météo

Publicité
Tours, France (7240): Température de l'air & dewpoint: 12.01.2018 14:00:00 - 18.01.2018 14:00:00 (CET)Tours, France (7240): Température de l'air 5cm: 12.01.2018 14:00:00 - 18.01.2018 14:00:00 (CET)Tours, France (7240): Température de l'air -20cm & Température de l'air -100cm: 12.01.2018 14:00:00 - 18.01.2018 14:00:00 (CET)Tours, France (7240): Vitesse du vent & gusts: 12.01.2018 14:00:00 - 18.01.2018 14:00:00 (CET)Tours, France (7240): Direction du vent: 12.01.2018 14:00:00 - 18.01.2018 14:00:00 (CET)Tours, France (7240): reduced air pressure: 12.01.2018 14:00:00 - 18.01.2018 14:00:00 (CET)Tours, France (7240): visibility: 12.01.2018 14:00:00 - 18.01.2018 14:00:00 (CET)Tours, France (7240): Ensoleillement: 12.01.2018 14:00:00 - 18.01.2018 14:00:00 (CET)Tours, France (7240): Quantités de précipitations: 12.01.2018 14:00:00 - 18.01.2018 14:00:00 (CET)
Date & Time tt [°C] td [°C] tt 5cm [°C] tt -20cm [°C] tt -100cm [°C] ff [km/h] ff [knt] fx [km/h] fx [knt] dd ppp [hPa] vv [km] sd [min] rr [mm]
18.01.2018 14:00:00 11,2 10,4 10,6 7,8 9,4 29 15 53 28 SW 1011,1 4,3 0 0,0
18.01.2018 13:00:00 11,0 10,1 10,3 7,8 9,4 31 17 48 26 SW 1012,0 16 0 0,0
18.01.2018 12:00:00 10,7 9,9 9,9 7,8 9,4 27 15 49 26 WSW 1012,7 12 0 0,6
18.01.2018 11:00:00 10,4 9,5 9,6 7,7 9,4 28 15 57 31 SW 1012,7 7 0 0,6
18.01.2018 10:00:00 10,2 9,3 9,2 7,7 9,4 33 18 53 29 WSW 1012,7 3,0 0 0,2
18.01.2018 09:00:00 9,8 9,0 9,0 7,7 9,4 34 18 58 32 SW 1012,5 8 0 0,2
18.01.2018 08:00:00 9,6 8,7 8,8 7,7 9,4 35 19 54 29 SW 1012,4 4,7 0 0,6
18.01.2018 07:00:00 9,3 8,4 8,4 7,6 9,4 28 15 50 27 SW 1012,7 8 0 0,0
18.01.2018 06:00:00 9,0 8,1 8,0 7,6 9,4 31 17 53 29 SW 1013,2 7 0 0,0
18.01.2018 05:00:00 8,5 7,7 7,6 7,6 9,4 32 17 54 29 SW 1013,7 6 0 0,0
18.01.2018 04:00:00 8,1 7,0 7,4 7,6 9,4 28 15 58 31 SW 1014,5 5 0 0,2
18.01.2018 03:00:00 8,4 5,7 7,2 7,6 9,4 32 17 56 31 SW 1015,2 11 0 0,0
18.01.2018 02:00:00 7,9 5,2 6,7 7,6 9,4 24 13 41 22 SW 1016,1 10 0 0,0
18.01.2018 01:00:00 7,4 5,2 5,7 7,7 9,4 22 12 34 18 SW 1017,6 10 0 0,0
18.01.2018 00:00:00 6,4 5,2 5,8 7,7 9,4 15 8 34 19 SW 1018,9 9 0 0,2
17.01.2018 23:00:00 7,0 3,8 5,6 7,7 9,4 22 12 39 21 SW 1019,1 35 0 0,0
17.01.2018 22:00:00 6,9 3,5 5,7 7,7 9,4 20 11 38 20 WSW 1020,0 38 0 0,0
17.01.2018 21:00:00 6,8 2,7 5,7 7,8 9,4 19 11 31 17 SW 1019,7 34 0 0,0
17.01.2018 20:00:00 6,8 1,9 5,5 7,8 9,4 18 10 28 15 SW 1020,1 10 0 0,0
17.01.2018 19:00:00 7,4 1,0 5,6 7,8 9,4 18 10 33 18 WSW 1020,1 10 0 0,0
17.01.2018 18:00:00 7,7 0,9 6,0 7,7 9,4 16 9 36 20 WSW 1020,0 10 2 0,0
17.01.2018 17:00:00 8,3 0,3 7,4 7,7 9,4 21 11 42 23 W 1020,1 47 23 0,0
17.01.2018 16:00:00 8,3 0,7 7,7 7,7 9,4 24 13 47 26 W 1019,6 10 8 0,0
17.01.2018 15:00:00 8,6 1,3 8,6 7,7 9,4 19 11 49 26 W 1019,4 39 32 0,0
17.01.2018 14:00:00 8,8 1,2 8,4 7,7 9,4 26 14 45 25 W 1019,1 10 53 0,0
17.01.2018 13:00:00 8,0 1,6 8,3 7,7 9,4 26 14 47 25 W 1019,4 10 52 0,0
17.01.2018 12:00:00 7,1 1,2 7,6 7,7 9,3 25 13 41 22 W 1019,3 26 58 0,0
17.01.2018 11:00:00 6,3 0,8 4,9 7,8 9,3 23 13 41 22 W 1018,5 20 30 0,0
17.01.2018 10:00:00 5,5 1,0 4,0 7,9 9,4 25 14 45 24 W 1017,1 36 39 0,0
17.01.2018 09:00:00 4,7 0,5 3,7 7,9 9,4 22 12 45 25 W 1015,7 40 0 0,0
17.01.2018 08:00:00 5,4 0,8 4,4 7,9 9,4 28 15 55 30 W 1014,6 10 0 0,0
17.01.2018 07:00:00 5,7 0,6 4,6 8,0 9,4 24 13 47 25 W 1013,6 49 0 0,0
17.01.2018 06:00:00 5,5 0,3 4,3 8,0 9,4 26 14 52 28 W 1012,8 39 0 0,0
17.01.2018 05:00:00 5,8 0,5 4,8 8,1 9,4 26 14 50 27 W 1011,6 10 0 0,0
17.01.2018 04:00:00 5,6 1,3 4,3 8,1 9,4 21 11 46 25 W 1011,3 10 0 0,0
17.01.2018 03:00:00 6,1 1,6 4,4 8,1 9,4 28 15 69 37 W 1010,2 10 0 0,0
17.01.2018 02:00:00 7,3 1,8 6,4 8,2 9,4 34 18 56 30 W 1009,1 10 0 0,0
17.01.2018 01:00:00 7,4 1,9 6,2 8,2 9,4 34 18 57 31 W 1008,4 10 0 0,0
17.01.2018 00:00:00 7,8 3,1 6,1 8,2 9,4 29 16 54 29 W 1007,9 10 0 0,0
16.01.2018 23:00:00 7,0 4,5 5,7 8,2 9,4 26 14 75 40 W 1007,4 10 0 0,2
16.01.2018 22:00:00 8,7 3,1 7,6 8,2 9,4 37 20 57 31 WSW 1006,6 10 0 0,0
16.01.2018 21:00:00 8,5 4,3 6,7 8,2 9,4 24 13 46 25 WSW 1007,0 10 0 0,0
16.01.2018 20:00:00 8,2 5,0 6,7 8,2 9,3 28 15 58 31 W 1007,1 10 0 0,2
16.01.2018 19:00:00 8,9 5,3 7,2 8,2 9,3 28 15 50 27 W 1006,8 10 0 0,2
16.01.2018 18:00:00 9,1 5,3 8,0 8,2 9,4 18 10 47 26 W 1006,9 44 0 0,0
16.01.2018 17:00:00 10,8 4,3 8,3 8,1 9,4 34 18 68 37 W 1006,3 15 24 0,0
16.01.2018 16:00:00 11,6 6,3 10,2 8,1 9,4 28 15 52 28 WSW 1006,2 19 11 0,0
16.01.2018 15:00:00 11,1 5,4 9,8 8,0 9,4 31 17 71 38 W 1006,9 10 1 0,0
16.01.2018 14:00:00 11,6 6,5 10,6 8,0 9,4 31 17 58 31 WSW 1007,7 17 5 0,0
16.01.2018 13:00:00 12,0 6,1 11,2 8,0 9,4 29 16 53 28 WSW 1008,5 10 16 0,0
16.01.2018 12:00:00 11,7 5,3 11,3 7,9 9,4 31 17 76 41 W 1009,0 10 31 0,0
16.01.2018 11:00:00 11,3 7,0 9,4 7,9 9,4 29 16 52 28 WSW 1008,7 19 30 0,0
16.01.2018 10:00:00 10,3 7,7 9,0 7,9 9,4 19 10 44 24 W 1008,2 18 2 0,0
16.01.2018 09:00:00 10,0 7,8 8,7 7,9 9,4 25 13 45 24 WSW 1007,9 20 0 0,2
16.01.2018 08:00:00 9,9 7,8 8,8 7,8 9,4 28 15 51 28 WSW 1007,3 6 0 0,0
16.01.2018 07:00:00 10,1 8,0 8,8 7,8 9,4 27 15 42 23 WSW 1006,5 37 0 0,0
16.01.2018 06:00:00 9,4 8,5 8,7 7,8 9,4 22 12 45 24 SW 1006,6 10 0 0,2
16.01.2018 05:00:00 9,7 7,5 8,8 7,8 9,5 23 12 36 20 WSW 1007,1 19 0 0,0
16.01.2018 04:00:00 9,8 7,7 8,6 7,7 9,4 23 13 45 25 WSW 1007,4 54 0 0,6
16.01.2018 03:00:00 10,0 7,4 8,7 7,7 9,4 26 14 51 27 WSW 1006,9 13 0 0,0
16.01.2018 02:00:00 9,9 8,3 9,0 7,6 9,4 29 16 56 30 W 1006,9 4,0 0 0,4
16.01.2018 01:00:00 10,1 8,2 9,1 7,6 9,5 25 13 49 27 WSW 1007,1 20 0 0,2
16.01.2018 00:00:00 10,0 8,9 9,2 7,6 9,5 25 13 45 24 SW 1007,6 11 0 0,2
15.01.2018 23:00:00 9,8 8,4 9,0 7,6 9,5 24 13 39 21 SW 1007,7 39 0 0,0
15.01.2018 22:00:00 9,9 8,5 9,0 7,5 9,5 23 12 42 23 SW 1007,4 36 0 0,0
15.01.2018 21:00:00 10,8 8,7 10,0 7,5 9,5 24 13 39 21 WSW 1007,8 10 0 0,0
15.01.2018 20:00:00 10,9 9,0 10,2 7,4 9,5 24 13 52 28 WSW 1006,8 60 0 0,0
15.01.2018 19:00:00 10,9 9,7 9,5 7,4 9,5 27 15 49 27 WSW 1006,2 60 0 0,0
15.01.2018 18:00:00 10,0 9,4 8,9 7,3 9,5 28 15 57 31 SW 1006,0 8 0 0,4
15.01.2018 17:00:00 9,4 8,6 8,3 7,3 9,5 35 19 58 31 SSW 1006,1 3,3 0 1,2
15.01.2018 16:00:00 8,7 7,9 7,8 7,3 9,5 37 20 66 36 SW 1006,9 2,9 0 1,2
15.01.2018 15:00:00 8,2 7,3 7,6 7,2 9,5 35 19 64 35 SSW 1008,1 3,3 0 2,0
15.01.2018 14:00:00 8,3 6,6 7,2 7,2 9,5 34 18 57 31 SSW 1010,1 8 0 1,0
15.01.2018 13:00:00 8,1 5,9 6,9 7,2 9,5 22 12 41 22 SSW 1012,6 24 0 0,0
15.01.2018 12:00:00 6,8 4,9 6,6 7,2 9,5 21 11 41 22 S 1014,5 10 0 0,0
15.01.2018 11:00:00 6,7 4,7 6,4 7,2 9,5 22 12 43 23 SSW 1015,7 10 0 0,0
15.01.2018 10:00:00 6,3 4,6 5,6 7,2 9,5 24 13 37 20 SSW 1016,2 24 0 0,0
15.01.2018 09:00:00 6,0 4,0 5,2 7,2 9,5 18 10 29 16 S 1016,7 32 0 0,0
15.01.2018 08:00:00 6,0 3,5 5,2 7,2 9,5 15 8 24 13 SSW 1017,9 10 0 0,0
15.01.2018 07:00:00 6,1 3,4 4,8 7,2 9,5 12 7 26 14 SSW 1018,0 36 0 0,0
15.01.2018 06:00:00 6,5 3,6 5,8 7,2 9,5 14 8 27 14 SSW 1017,8 35 0 0,0
15.01.2018 05:00:00 6,6 4,3 5,7 7,2 9,5 14 8 23 12 SSW 1018,7 26 0 0,0
15.01.2018 04:00:00 6,4 4,4 5,5 7,3 9,5 10 5 19 11 SSW 1019,4 19 0 0,0
15.01.2018 03:00:00 6,4 4,4 4,9 7,3 9,5 11 6 17 9 SSW 1019,8 10 0 0,0
15.01.2018 02:00:00 5,6 4,9 3,6 7,4 9,6 8 4 11 6 SSW 1020,0 8 0 0,0
15.01.2018 01:00:00 4,0 3,4 1,0 7,4 9,6 4 2 5 3 W 1020,8 4,0 0 0,0
15.01.2018 00:00:00 3,9 3,3 0,4 7,5 9,6 4 2 9 5 SE 1020,7 0,3 0 0,0
14.01.2018 23:00:00 4,4 3,8 0,8 7,5 9,6 8 4 11 6 SSE 1020,4 4,9 0 0,0
14.01.2018 22:00:00 3,5 2,8 0,3 7,5 9,6 5 3 8 4 ESE 1020,3 1,8 0 0,0
14.01.2018 21:00:00 4,2 2,9 1,2 7,6 9,6 0 0 7 4 N 1019,9 4,8 0 0,0
14.01.2018 20:00:00 6,0 4,6 2,0 7,6 9,6 4 2 8 4 NE 1019,7 11 0 0,0
14.01.2018 19:00:00 6,1 4,1 1,9 7,5 9,6 4 2 9 5 NE 1019,3 12 0 0,0
14.01.2018 18:00:00 7,2 4,0 3,0 7,5 9,6 0 0 8 4 N 1018,4 26 4 0,0
14.01.2018 17:00:00 8,6 4,8 9,1 7,4 9,6 5 3 7 4 E 1017,7 10 60 0,0
14.01.2018 16:00:00 10,1 4,2 13,5 7,3 9,6 4 2 6 3 E 1017,4 50 60 0,0
14.01.2018 15:00:00 10,6 4,3 14,3 7,3 9,6 0 0 7 4 N 1017,2 46 60 0,0
14.01.2018 14:00:00 10,5 5,5 13,4 7,2 9,6 0 0 10 5 N 1017,1 20 60 0,0
14.01.2018 13:00:00 9,2 5,4 8,7 7,2 9,6 4 2 10 6 - 1017,2 10 32 0,0
14.01.2018 12:00:00 7,0 4,6 7,0 7,2 9,6 4 2 8 4 - 1017,4 10 0 0,0
14.01.2018 11:00:00 6,0 3,8 6,7 7,2 9,6 5 3 8 4 ESE 1017,5 12 24 0,0
14.01.2018 10:00:00 4,9 3,2 2,5 7,2 9,6 4 2 11 6 E 1016,9 5 49 0,0
14.01.2018 09:00:00 2,7 2,0 1,0 7,3 9,6 6 4 13 7 E 1016,4 3,2 0 0,0
14.01.2018 08:00:00 2,9 2,2 1,1 7,3 9,6 11 6 14 8 ENE 1015,7 5 0 0,0
14.01.2018 07:00:00 4,3 2,8 3,8 7,3 9,6 0 0 10 5 N 1015,1 9 0 0,0
14.01.2018 06:00:00 3,9 2,9 3,0 7,4 9,6 4 2 14 7 E 1015,1 7 0 0,0
14.01.2018 05:00:00 2,9 2,3 1,8 7,4 9,6 8 4 15 8 E 1015,0 5 0 0,0
14.01.2018 04:00:00 2,2 1,6 1,6 7,5 9,7 7 4 15 8 ESE 1014,8 3,2 0 0,0
14.01.2018 03:00:00 2,3 1,7 1,6 7,5 9,7 8 4 16 8 E 1014,9 3,0 0 0,0
14.01.2018 02:00:00 2,3 1,6 1,6 7,5 9,7 11 6 16 9 ENE 1014,9 4,7 0 0,0
14.01.2018 01:00:00 2,5 1,8 1,9 7,6 9,7 12 7 15 8 E 1015,1 3,8 0 0,0
14.01.2018 00:00:00 2,8 1,8 2,3 7,6 9,7 11 6 20 11 E 1015,3 4,5 0 0,0
13.01.2018 23:00:00 3,0 2,0 2,6 7,6 9,7 14 8 25 13 E 1015,4 5 0 0,0
13.01.2018 22:00:00 3,3 2,1 2,9 7,6 9,7 18 10 25 14 E 1015,6 6 0 0,0
13.01.2018 21:00:00 3,6 2,3 3,3 7,6 9,6 18 10 28 15 ENE 1015,6 7 0 0,0
13.01.2018 20:00:00 3,8 2,5 3,4 7,6 9,7 15 8 28 15 E 1016,0 8 0 0,0
13.01.2018 19:00:00 4,7 3,0 4,3 7,7 9,7 18 10 28 15 E 1015,9 10 0 0,0
13.01.2018 18:00:00 4,9 3,4 4,1 7,7 9,7 16 9 23 13 E 1016,1 10 0 0,0
13.01.2018 17:00:00 4,9 3,2 4,6 7,6 9,7 15 8 23 12 ENE 1016,0 10 24 0,0
13.01.2018 16:00:00 5,4 3,6 5,5 7,6 9,7 19 10 25 13 ENE 1016,0 11 16 0,0
13.01.2018 15:00:00 5,3 3,3 5,7 7,6 9,7 16 9 28 15 E 1016,4 12 0 0,0
13.01.2018 14:00:00 5,3 3,5 5,8 7,6 9,7 18 10 30 16 ENE 1016,8 11 0 0,0
13.01.2018 13:00:00 5,0 3,5 5,1 7,6 9,7 18 10 31 17 E 1017,9 11 0 0,0
13.01.2018 12:00:00 4,3 3,4 4,4 7,6 9,7 21 11 27 15 E 1018,8 8 0 0,0
13.01.2018 11:00:00 4,0 3,6 3,8 7,6 9,7 16 9 24 13 E 1019,6 5 0 0,0
13.01.2018 10:00:00 3,6 3,2 3,4 7,6 9,7 11 6 25 13 ESE 1019,8 6 0 0,0
13.01.2018 09:00:00 3,6 3,2 3,5 7,7 9,7 14 8 21 12 E 1019,8 2,7 0 0,0
13.01.2018 08:00:00 3,8 3,5 3,7 7,7 9,7 11 6 22 12 E 1020,1 2,9 0 0,0
13.01.2018 07:00:00 3,8 3,5 3,5 7,8 9,7 13 7 26 14 ESE 1020,3 1,7 0 0,0
13.01.2018 06:00:00 3,5 3,2 3,4 7,8 9,7 16 9 27 15 ESE 1021,0 1,4 0 0,0
13.01.2018 05:00:00 3,5 3,2 2,8 7,9 9,7 11 6 19 10 ESE 1021,5 0,5 0 0,0
13.01.2018 04:00:00 3,1 2,8 -0,6 7,9 9,7 10 5 16 9 E 1022,0 0,2 0 0,0
13.01.2018 03:00:00 1,6 1,2 -0,7 8,0 9,7 9 5 12 7 E 1022,7 0,8 0 0,0
13.01.2018 02:00:00 2,3 1,9 0,5 8,1 9,7 9 5 16 9 E 1023,1 1,9 0 0,0
13.01.2018 01:00:00 3,0 2,7 -0,8 8,1 9,7 13 7 16 9 E 1023,5 2,6 0 0,0
13.01.2018 00:00:00 2,4 1,8 -0,8 8,1 9,7 5 3 9 5 E 1024,5 2,4 0 0,0
12.01.2018 23:00:00 2,6 1,7 -0,2 8,2 9,7 7 4 8 5 E 1024,8 2,9 0 0,0
12.01.2018 22:00:00 4,4 3,4 2,5 8,2 9,7 5 3 10 6 E 1025,2 6 0 0,0
12.01.2018 21:00:00 5,2 4,2 4,3 8,2 9,7 5 3 7 4 E 1025,6 6 0 0,0
12.01.2018 20:00:00 5,6 3,9 4,8 8,2 9,7 2 1 9 5 NNE 1025,4 11 0 0,0
12.01.2018 19:00:00 5,7 4,0 5,4 8,2 9,7 5 3 10 5 E 1025,7 12 0 0,0
12.01.2018 18:00:00 5,9 3,2 5,5 8,2 9,7 2 1 9 5 ENE 1025,7 20 0 0,0
12.01.2018 17:00:00 5,9 3,4 5,8 8,2 9,7 2 1 9 5 - 1025,8 10 0 0,0
12.01.2018 16:00:00 5,9 3,6 6,3 8,2 9,7 4 2 9 5 N 1025,7 18 0 0,0
12.01.2018 15:00:00 5,7 3,7 6,0 8,1 9,7 4 2 7 4 NNW 1025,8 16 0 0,0
12.01.2018 14:00:00 5,3 3,3 5,7 8,1 9,7 7 4 12 6 W 1026,4 16 0 0,0

tt = Température de l'air
td = dewpoint
tt 5cm = Température de l'air 5cm
tt -20cm = Température de l'air -20cm
tt -100cm = Température de l'air -100cm
ff = Vitesse du vent
fx = gusts
dd = Direction du vent
ppp = reduced air pressure
vv = visibility
sd = Ensoleillement
rr = Quantités de précipitations

stations d'obs. à proximité